Location: Avenches
(46.8809°N, 7.0410°E)
Time: 18:02:23
(UTC+00:00)

STARLINK-1104 - Pass Details

Date: 30 March 2020
Orbit: 548 x 551 km, 53.0° (Epoch: 02 June)

Event Time Altitude Azimuth Distance (km) Brightness Sun altitude
Rises 18:27:20 0° 294° (WNW) 2,728 9.3 -5.6°
Reaches altitude 10° 18:29:40 10° 302° (WNW) 1,832 7.7 -6.0°
Maximum altitude 18:33:38 41° 14° (NNE) 805 4.5 -6.7°
Drops below altitude 10° 18:37:35 10° 85° (E) 1,828 5.7 -7.3°
Enters shadow 18:37:56 - 87° (E) 1,956 5.8 -7.4°
